Wetbulb
59.48 53.56 51.84 51.30 44.01 40.38 37.08 41.04 42.89 44.76 46.12 48.87 49.87 48.15 48.83 51.21 49.95 42.59 59.90 63.27 64.43 65.04 67.25 68.38 70.76 71.35 71.23 71.10 70.64 70.79 70.23 68.57 68.89 69.05 68.37 67.87 67.40 67.33 67.67 67.00 67.20 67.25 68.63 68.11 68.10 68.38 68.07 66.93 66.00
54.95 53.80 51.67 46.85 40.13 35.30 36.55 39.52 43.14 45.85 50.70 52.48 52.65 52.62 51.26 49.20 56.69 59.51 59.78 63.39 64.99 66.07 66.39 67.27 69.81 71.01 71.20 70.84 70.52 70.68 69.85 69.45 68.91 69.47 68.83 67.96 67.52 67.40 66.98 66.77 66.92 67.08 68.15 67.93 67.68 67.78 67.33 66.44 66.25
53.64 52.45 48.32 43.15 37.79 36.82 37.21 41.33 43.30 48.03 52.91 49.14 51.76 53.33 52.24 51.85 56.96 60.18 61.21 64.40 65.65 65.13 65.74 66.71 69.66 71.11 71.10 70.80 70.52 70.42 69.79 69.83 69.02 69.50 68.94 67.99 67.08 66.96 66.51 66.53 66.21 66.88 68.12 67.84 67.17 67.61 67.06 66.26 65.95
51.26 51.03 47.27 41.25 38.51 41.79 40.78 44.50 46.44 48.52 50.20 52.03 52.92 50.11 53.80 58.77 59.79 61.80 63.72 64.94 64.41 64.03 64.56 67.29 70.03 71.02 70.89 70.73 70.58 70.27 69.86 69.67 69.43 70.31 69.12 68.20 67.23 66.53 65.93 66.11 66.24 67.05 67.75 67.14 66.93 66.86 67.00 66.21 65.48
51.54 47.75 41.36 39.31 39.87 42.88 43.98 47.11 48.00 47.46 47.85 49.21 51.02 50.24 52.16 57.77 61.03 62.70 63.90 64.63 64.42 62.61 63.89 66.17 69.28 70.24 70.46 70.42 69.95 69.84 69.53 69.54 68.38 69.13 68.17 67.54 67.08 65.83 65.41 65.74 65.78 66.28 66.85 66.14 66.55 66.67 66.66 65.99 65.06
47.13 45.89 39.40 38.44 38.91 43.88 44.09 48.50 48.73 47.83 49.26 50.18 52.38 52.32 53.34 58.34 60.44 61.87 63.51 62.96 63.76 62.54 63.94 65.47 66.14 67.88 69.06 69.40 69.27 69.08 68.91 67.96 67.26 68.11 67.39 66.96 66.51 65.60 65.42 65.28 65.64 65.62 66.02 65.94 65.80 65.72 66.13 65.82 64.83
44.44 42.77 39.01 38.47 41.56 43.38 44.70 48.19 46.87 48.43 48.25 49.68 55.05 50.54 53.45 55.92 60.45 61.19 62.25 62.21 63.13 63.06 63.82 64.11 64.91 65.71 65.86 67.09 67.27 67.79 68.05 67.52 67.00 67.90 67.48 66.76 66.45 65.15 65.73 65.24 65.23 65.60 65.55 65.34 65.07 64.65 64.82 65.29 64.69
47.91 44.84 40.37 40.42 40.80 43.15 47.11 47.27 47.20 49.94 49.57 54.24 56.12 48.98 49.86 56.17 59.33 60.72 61.61 61.64 61.72 62.50 62.81 62.15 63.01 63.91 64.21 64.64 64.39 65.33 65.98 66.10 66.17 65.91 64.99 63.99 63.66 63.34 64.29 63.44 64.61 64.77 64.64 64.25 64.22 63.86 63.65 64.09 64.28
53.01 42.42 40.79 42.52 43.94 44.76 47.70 44.55 45.89 49.52 50.91 52.02 55.01 53.99 56.28 58.94 59.11 59.63 59.47 61.36 62.70 61.95 61.38 61.16 61.74 62.32 62.67 63.10 62.25 63.26 63.86 64.17 64.06 63.12 61.94 60.88 60.70 60.80 61.17 61.65 63.48 63.79 63.77 63.22 62.98 62.56 61.62 61.04 62.29
49.29 44.18 43.11 46.69 47.71 44.66 45.07 44.89 45.58 45.93 47.81 50.10 53.13 56.69 57.54 58.44 58.26 57.92 57.92 58.34 60.48 61.32 60.40 60.73 61.00 61.33 61.75 63.97 62.69 62.06 62.65 62.21 61.50 60.62 59.90 59.76 59.17 59.37 60.59 59.93 61.64 62.44 61.78 62.61 62.23 60.98 59.69 56.91 54.27
48.02 45.98 48.09 49.76 50.13 50.08 46.22 45.57 46.57 44.89 44.98 50.42 51.34 53.99 56.60 57.06 57.28 57.69 57.98 58.36 59.36 61.06 60.98 60.58 60.70 60.86 61.42 61.98 63.01 61.28 61.14 60.61 59.91 59.08 58.58 58.47 58.14 57.20 57.69 57.99 57.71 56.68 56.41 56.04 55.67 54.95 54.93 54.33 53.88
44.54 49.12 50.45 51.45 50.56 49.87 48.55 45.93 42.85 45.71 49.22 50.24 52.03 56.18 56.80 57.07 56.71 56.96 57.40 57.64 58.43 59.81 60.62 60.54 60.38 60.42 60.96 61.12 62.70 63.32 62.28 59.29 58.98 58.20 58.07 57.07 56.21 55.66 55.29 55.67 55.14 54.32 54.02 53.15 53.00 53.89 54.04 53.83 54.16
45.37 48.95 50.99 52.05 50.23 50.00 50.37 48.10 44.33 44.22 48.60 48.48 52.25 56.41 56.19 57.29 57.43 58.03 58.65 58.44 57.97 58.77 60.14 60.47 60.14 60.32 61.51 61.36 62.30 62.32 61.90 59.87 59.12 58.65 58.25 57.51 56.45 55.35 54.71 53.97 53.40 53.00 52.90 52.66 52.68 53.23 53.56 53.32 53.56
47.63 49.03 49.16 50.51 50.25 50.61 48.55 48.75 43.23 44.64 45.76 48.74 54.76 55.87 55.59 56.83 57.93 58.10 58.01 58.15 57.80 58.50 59.44 60.72 60.10 60.48 60.67 62.35 61.84 61.51 61.82 60.27 58.88 58.13 57.93 57.78 57.36 56.32 54.98 53.82 53.16 52.51 52.63 53.26 53.12 53.10 53.05 52.92 53.25
49.85 46.03 47.75 48.71 50.19 48.90 48.89 46.59 42.11 46.48 44.22 45.77 51.89 55.23 55.61 56.03 56.83 58.22 59.30 59.16 59.06 59.18 59.51 59.62 60.12 60.60 60.50 60.79 60.89 60.34 60.63 59.99 59.30 58.64 58.15 58.25 58.10 57.18 56.03 54.47 53.23 53.41 53.73 53.43 52.89 52.66 52.59 52.25 52.67
47.24 46.70 40.71 46.66 49.81 49.94 48.55 42.46 46.51 48.58 43.35 43.21 45.84 51.85 55.45 56.56 56.67 57.67 59.08 59.91 60.00 59.95 59.47 59.78 60.79 60.30 60.51 60.49 60.10 60.45 59.99 59.76 59.51 58.58 58.69 58.22 58.45 57.46 56.33 55.63 54.86 54.84 54.83 54.06 52.91 52.25 51.66 51.33 51.25
44.38 38.34 39.70 42.30 50.13 48.45 45.65 40.81 47.67 48.60 44.55 43.10 42.20 47.53 53.33 55.95 56.95 58.62 58.66 58.29 60.27 60.75 60.07 59.75 60.31 59.71 59.70 60.43 60.36 60.03 59.81 59.65 59.43 58.67 58.75 58.43 58.42 57.80 57.47 56.65 56.22 55.78 54.73 53.83 53.07 51.95 51.71 50.97 51.15
39.16 40.31 39.07 39.70 46.24 47.36 43.09 41.96 46.36 49.44 47.99 44.15 42.72 41.13 49.13 54.04 56.25 59.03 59.75 59.94 59.08 60.97 61.22 60.61 60.51 60.34 59.80 60.10 60.27 59.04 58.86 59.52 59.08 59.36 59.29 58.99 59.25 58.25 57.64 56.26 55.81 55.20 53.85 52.96 52.05 51.91 51.05 51.25 51.39
41.91 41.23 40.54 43.11 47.06 44.36 43.67 44.39 46.91 49.80 48.58 46.00 44.65 43.02 41.71 45.89 55.92 57.00 58.93 60.60 59.71 58.20 60.96 60.54 60.16 60.36 60.09 59.59 58.87 58.65 58.52 58.60 58.59 59.42 59.48 59.49 59.39 58.65 57.87 57.50 55.81 54.68 54.39 53.95 52.30 51.20 50.98 50.55 51.82
43.65 40.08 39.40 42.99 46.14 44.46 43.09 42.97 46.28 48.67 48.58 49.36 49.37 47.46 44.14 44.07 45.41 49.15 57.02 58.21 60.18 59.16 59.03 60.57 60.43 60.59 60.38 60.52 60.34 60.27 59.76 59.57 59.82 59.58 59.20 59.48 59.26 58.66 58.44 58.02 56.41 55.16 54.35 52.98 51.90 51.22 49.90 50.72 54.08
41.32 40.61 40.24 40.23 43.26 44.67 44.34 41.63 43.17 47.55 48.80 49.79 49.89 50.24 50.83 49.13 48.33 46.65 49.40 56.19 57.94 59.49 58.96 59.53 60.62 60.51 60.65 61.23 60.82 58.20 57.91 56.63 58.97 58.94 59.10 58.86 58.91 58.76 58.41 57.80 57.28 55.62 56.07 55.15 53.33 52.43 51.45 51.16 51.19
37.54 43.59 43.17 42.09 40.53 36.66 43.85 34.19 39.60 43.11 45.83 47.02 48.85 49.50 49.10 49.26 49.48 49.52 47.33 49.86 56.23 57.93 60.21 59.72 59.99 60.39 60.49 61.05 60.57 59.91 59.54 59.00 59.93 60.34 60.78 60.04 58.65 58.66 58.49 58.14 57.25 56.31 56.23 55.98 54.73 54.18 53.84 51.64 52.64
41.17 45.01 43.71 42.58 40.39 38.56 38.62 35.77 36.51 42.69 41.96 43.98 47.25 49.33 49.90 50.04 50.75 49.53 49.31 48.60 51.93 57.08 58.24 59.60 59.64 59.77 60.38 60.35 60.74 60.06 59.42 60.12 60.20 60.01 59.18 59.68 59.42 59.18 58.48 57.92 56.99 56.55 56.13 56.29 55.61 53.69 54.11 53.60 54.08
45.66 43.12 42.45 41.67 40.19 32.61 37.08 36.49 36.26 40.88 41.31 42.66 46.43 48.89 49.93 50.95 51.79 51.79 51.99 50.40 48.44 53.35 57.46 58.48 58.82 58.94 59.82 59.93 60.13 59.67 59.45 59.09 58.41 57.64 57.62 58.54 59.74 60.03 59.49 58.06 57.76 57.14 56.60 56.05 55.71 55.46 54.72 54.83 54.66
43.73 39.57 31.30 29.35 29.35 29.42 35.06 35.13 36.84 43.21 40.17 41.91 43.89 44.93 45.68 46.07 45.55 46.36 46.20 45.45 46.72 49.66 54.75 57.22 57.89 57.87 59.14 59.43 59.50 59.88 59.42 58.98 58.15 57.90 57.96 57.72 58.55 59.19 59.40 59.75 58.54 57.52 57.22 56.84 56.37 55.52 55.36 54.88 54.45
40.46 39.17 32.74 25.27 26.28 29.55 33.45 32.15 35.89 43.39 46.36 48.25 46.74 47.01 46.07 42.40 42.59 44.29 46.26 46.90 47.45 48.33 52.81 56.02 57.12 57.56 58.32 58.94 59.11 59.69 59.66 59.53 59.18 58.60 58.57 58.52 58.38 58.67 59.17 59.64 59.49 58.75 58.14 57.25 56.56 56.50 55.79 55.63 54.84
40.02 37.28 40.45 32.46 26.43 26.76 29.67 30.98 37.25 40.12 40.62 41.00 42.06 42.05 44.52 44.87 43.15 42.72 42.84 43.61 44.15 46.86 51.27 54.59 56.18 57.34 57.72 58.42 59.04 59.09 59.47 59.26 59.01 59.16 58.69 58.59 58.73 58.27 57.48 58.65 58.79 58.61 58.17 57.55 57.76 57.17 56.71 55.77 55.12
41.61 42.07 33.75 33.16 26.12 21.49 27.10 27.38 32.07 36.78 40.37 41.66 43.68 41.51 41.39 41.91 42.90 43.19 42.07 41.06 42.81 44.44 49.50 52.94 55.62 56.67 57.61 57.89 58.56 58.79 59.05 59.09 59.29 58.77 58.09 58.41 58.28 57.11 56.28 57.53 57.86 57.83 58.52 58.18 57.74 57.36 57.35 56.22 56.19
37.97 37.16 38.00 36.78 33.07 25.31 23.43 28.96 34.42 39.12 41.39 40.54 40.24 40.31 40.18 40.72 40.95 41.95 43.28 40.86 39.94 41.40 46.69 50.17 52.60 54.48 55.45 57.05 57.80 58.01 58.21 58.48 58.59 58.56 58.41 58.32 58.27 57.34 57.05 57.73 57.71 57.67 58.22 58.37 57.73 57.48 57.44 56.44 56.05
41.65 38.67 38.73 32.86 28.52 27.89 25.78 30.69 36.61 36.56 37.27 37.30 37.80 38.40 37.58 37.89 38.66 38.94 38.89 38.89 38.52 38.93 42.13 47.17 50.23 52.33 54.73 55.61 56.94 57.59 57.81 57.73 57.84 58.72 58.72 58.60 58.41 58.21 58.03 57.86 57.76 57.54 57.90 58.37 57.44 57.21 57.06 56.62 55.29
MSLP
1014.49 1014.12 1014.27 1014.45 1016.31 1017.10 1017.35 1017.16 1016.85 1017.14 1017.39 1017.44 1017.73 1018.08 1018.29 1018.61 1019.08 1019.88 1019.27 1019.25 1019.27 1019.50 1019.77 1019.83 1020.00 1020.20 1020.40 1020.50 1020.80 1020.90 1021.05 1021.10 1021.24 1021.36 1021.47 1021.56 1021.68 1021.77 1021.92 1022.02 1022.20 1022.26 1022.26 1022.37 1022.36 1022.49 1022.60 1022.71 1022.76
1014.44 1014.30 1014.76 1015.72 1017.21 1017.91 1017.71 1017.06 1016.92 1016.89 1017.16 1017.44 1017.59 1018.04 1018.24 1018.62 1018.69 1019.05 1019.41 1019.36 1019.22 1019.54 1019.83 1020.06 1020.09 1020.35 1020.53 1020.79 1021.00 1021.08 1021.25 1021.43 1021.49 1021.60 1021.73 1021.96 1022.16 1022.34 1022.36 1022.37 1022.46 1022.56 1022.62 1022.73 1022.82 1022.85 1023.04 1023.09 1023.09
1014.41 1015.05 1016.09 1016.80 1018.03 1018.10 1017.58 1016.92 1016.81 1016.97 1017.04 1017.41 1017.96 1018.18 1018.32 1018.34 1018.62 1018.86 1018.83 1019.24 1019.35 1019.70 1019.94 1020.23 1020.28 1020.41 1020.64 1020.85 1021.10 1021.28 1021.36 1021.60 1021.70 1021.71 1021.93 1022.26 1022.41 1022.62 1022.77 1022.85 1022.89 1022.84 1022.95 1023.08 1023.08 1023.14 1023.35 1023.54 1023.59
1015.25 1015.80 1017.21 1017.43 1017.77 1017.47 1017.14 1016.86 1016.82 1017.11 1017.26 1017.36 1017.63 1018.25 1018.22 1018.14 1018.19 1018.38 1018.73 1019.14 1019.61 1019.91 1020.17 1020.32 1020.49 1020.53 1020.84 1021.04 1021.15 1021.34 1021.50 1021.77 1021.76 1021.94 1022.14 1022.52 1022.74 1022.99 1023.11 1023.18 1023.19 1023.26 1023.31 1023.47 1023.53 1023.64 1023.77 1023.88 1024.01
1016.05 1017.03 1017.93 1018.04 1017.60 1017.12 1016.76 1016.61 1016.88 1017.08 1017.12 1017.35 1017.54 1018.07 1018.31 1018.16 1018.14 1018.40 1018.78 1019.07 1019.78 1020.15 1020.28 1020.49 1020.48 1020.76 1020.84 1021.13 1021.21 1021.43 1021.68 1021.81 1022.00 1022.21 1022.53 1022.89 1023.10 1023.27 1023.47 1023.57 1023.53 1023.52 1023.67 1023.80 1023.92 1024.02 1024.13 1024.28 1024.42
1017.44 1018.25 1018.73 1018.52 1017.84 1016.96 1016.63 1016.50 1016.81 1016.95 1017.12 1017.46 1017.73 1018.22 1018.44 1018.32 1018.48 1018.76 1018.95 1019.30 1019.61 1020.10 1020.25 1020.50 1020.66 1020.78 1020.97 1021.22 1021.54 1021.65 1021.80 1022.00 1022.25 1022.56 1022.86 1023.12 1023.31 1023.48 1023.65 1023.82 1023.83 1023.87 1023.99 1024.17 1024.36 1024.44 1024.53 1024.66 1024.85
1019.19 1019.86 1019.47 1018.76 1018.11 1017.23 1016.66 1016.50 1016.69 1016.78 1017.03 1017.26 1017.45 1018.46 1018.49 1018.70 1018.49 1018.70 1019.06 1019.38 1019.67 1020.04 1020.23 1020.49 1020.82 1021.08 1021.22 1021.38 1021.68 1021.99 1022.12 1022.32 1022.62 1022.86 1023.10 1023.33 1023.49 1023.66 1023.92 1024.12 1024.20 1024.25 1024.40 1024.51 1024.63 1024.78 1024.88 1025.03 1025.20
1020.03 1020.57 1019.92 1019.04 1018.50 1017.71 1016.86 1016.79 1016.54 1016.64 1016.67 1017.05 1017.20 1017.90 1018.00 1017.92 1018.57 1019.06 1019.27 1019.69 1020.03 1020.10 1020.29 1020.54 1020.87 1021.21 1021.39 1021.58 1021.76 1022.07 1022.37 1022.57 1022.88 1023.07 1023.33 1023.57 1023.68 1023.89 1024.18 1024.39 1024.50 1024.57 1024.64 1024.78 1024.90 1025.03 1025.15 1025.28 1025.38
1019.62 1021.01 1020.44 1019.50 1018.95 1018.22 1017.69 1017.49 1016.89 1016.76 1016.63 1016.86 1017.01 1017.30 1017.37 1017.61 1018.67 1019.36 1019.62 1019.98 1020.21 1020.37 1020.47 1020.66 1020.96 1021.28 1021.62 1021.86 1022.09 1022.20 1022.44 1022.64 1023.02 1023.30 1023.48 1023.72 1023.96 1024.23 1024.44 1024.62 1024.71 1024.80 1024.95 1025.09 1025.25 1025.43 1025.52 1025.60 1025.71
1019.50 1020.84 1020.24 1019.58 1019.45 1019.23 1018.60 1018.12 1017.29 1016.88 1016.93 1017.06 1017.09 1017.28 1017.61 1017.98 1018.67 1019.16 1019.40 1019.50 1019.78 1019.96 1020.44 1020.54 1020.97 1021.31 1021.68 1021.94 1022.25 1022.45 1022.65 1022.88 1023.19 1023.52 1023.74 1024.03 1024.34 1024.55 1024.69 1024.79 1024.92 1025.06 1025.20 1025.33 1025.54 1025.72 1025.89 1026.08 1026.28
1019.71 1019.21 1019.18 1019.00 1019.28 1019.21 1018.88 1018.28 1017.83 1017.21 1017.20 1016.76 1016.49 1016.94 1017.80 1018.27 1018.71 1019.00 1019.32 1019.18 1019.33 1019.81 1020.28 1020.40 1020.78 1021.20 1021.59 1021.97 1022.34 1022.57 1022.79 1023.03 1023.30 1023.66 1023.94 1024.20 1024.50 1024.81 1025.04 1025.22 1025.33 1025.50 1025.72 1025.98 1025.97 1026.05 1026.22 1026.30 1026.42
1020.04 1018.83 1018.37 1017.74 1018.60 1019.04 1018.68 1018.48 1018.02 1017.43 1016.51 1016.43 1016.23 1016.48 1017.47 1018.00 1018.20 1018.24 1018.60 1018.94 1019.27 1019.67 1020.00 1020.47 1020.54 1021.04 1021.58 1021.94 1022.25 1022.54 1022.85 1023.17 1023.42 1023.65 1023.90 1024.28 1024.71 1025.01 1025.26 1025.45 1025.57 1025.74 1025.91 1026.06 1026.19 1026.35 1026.43 1026.53 1026.62
1019.96 1019.20 1018.63 1017.58 1017.96 1018.43 1018.56 1018.25 1018.16 1017.36 1016.31 1016.37 1016.47 1016.72 1016.91 1017.40 1017.47 1017.63 1017.98 1018.73 1019.05 1019.44 1019.65 1020.12 1020.40 1020.76 1021.30 1021.73 1022.08 1022.32 1022.65 1022.95 1023.21 1023.55 1023.84 1024.18 1024.54 1024.95 1025.25 1025.47 1025.68 1025.75 1025.89 1026.05 1026.24 1026.43 1026.54 1026.66 1026.66
1019.24 1019.15 1018.84 1017.96 1017.82 1017.69 1018.17 1017.49 1017.34 1016.62 1016.32 1016.47 1016.51 1016.63 1016.54 1016.66 1016.80 1017.38 1017.71 1017.96 1018.36 1018.73 1019.12 1019.76 1020.19 1020.36 1020.93 1021.38 1021.74 1022.06 1022.35 1022.64 1022.99 1023.45 1023.75 1024.13 1024.32 1024.60 1025.04 1025.28 1025.50 1025.69 1025.85 1026.00 1026.21 1026.46 1026.61 1026.67 1026.73
1019.46 1019.59 1018.97 1018.34 1018.06 1017.71 1017.56 1016.74 1016.44 1016.19 1016.39 1016.46 1016.76 1016.69 1016.68 1016.39 1016.79 1016.45 1016.40 1016.95 1017.34 1017.78 1018.54 1019.12 1019.74 1019.99 1020.42 1020.90 1021.40 1021.88 1022.09 1022.51 1022.70 1023.05 1023.38 1023.64 1024.00 1024.32 1024.67 1025.03 1025.38 1025.45 1025.71 1026.02 1026.23 1026.37 1026.49 1026.65 1026.76
1019.67 1019.56 1019.32 1017.45 1017.54 1017.53 1017.32 1015.83 1015.84 1015.84 1016.33 1016.35 1016.31 1016.53 1016.50 1016.24 1015.75 1015.90 1016.10 1016.48 1016.98 1017.43 1017.90 1018.41 1018.98 1019.61 1019.88 1020.34 1020.85 1021.39 1021.76 1022.15 1022.38 1022.76 1023.12 1023.35 1023.65 1023.99 1024.27 1024.56 1024.76 1025.06 1025.47 1025.88 1026.16 1026.33 1026.61 1026.80 1026.84
1019.50 1018.84 1018.50 1017.72 1017.57 1017.33 1017.49 1015.90 1015.00 1015.16 1015.75 1015.91 1015.81 1015.96 1016.02 1015.85 1015.71 1015.26 1015.43 1015.84 1016.26 1016.66 1017.16 1017.76 1018.37 1018.93 1019.42 1019.79 1020.29 1020.81 1021.26 1021.69 1022.05 1022.38 1022.69 1022.99 1023.18 1023.51 1023.87 1024.12 1024.33 1024.68 1025.20 1025.64 1025.86 1026.22 1026.35 1026.58 1026.59
1018.01 1018.35 1018.10 1017.96 1017.64 1017.08 1017.03 1016.27 1015.16 1014.63 1014.90 1015.12 1015.36 1015.38 1015.67 1015.32 1014.45 1014.24 1014.66 1014.97 1015.43 1015.82 1016.54 1017.04 1017.66 1018.27 1018.91 1019.38 1020.08 1020.58 1020.94 1021.20 1021.49 1021.71 1021.94 1022.28 1022.63 1022.97 1023.42 1023.69 1023.96 1024.39 1024.97 1025.30 1025.60 1025.92 1026.15 1026.19 1026.18
1017.97 1017.89 1017.78 1017.33 1017.49 1017.07 1016.93 1016.42 1015.06 1014.25 1014.19 1014.20 1014.48 1014.51 1014.45 1014.38 1013.27 1013.91 1014.03 1014.39 1015.00 1015.38 1015.98 1016.29 1016.83 1017.35 1018.21 1018.83 1019.54 1020.11 1020.34 1020.71 1020.91 1020.92 1021.06 1021.42 1021.87 1022.24 1022.73 1023.08 1023.51 1023.93 1024.47 1024.75 1025.09 1025.56 1025.87 1025.99 1026.00
1017.94 1017.65 1017.16 1017.41 1017.05 1017.68 1017.20 1015.73 1014.81 1013.87 1013.24 1013.00 1012.92 1013.23 1013.29 1013.19 1012.77 1012.95 1013.25 1013.67 1013.96 1014.18 1014.55 1015.25 1015.76 1016.53 1017.03 1017.58 1018.13 1018.70 1019.32 1019.69 1019.73 1020.13 1020.37 1020.52 1021.02 1021.39 1021.89 1022.28 1022.76 1023.31 1023.85 1024.31 1024.72 1025.11 1025.52 1025.51 1025.50
1017.44 1017.22 1017.37 1017.44 1017.51 1017.35 1016.88 1014.32 1013.82 1012.07 1012.03 1011.88 1011.36 1011.43 1011.52 1011.46 1011.57 1011.68 1012.18 1012.43 1012.92 1013.20 1013.27 1013.81 1014.45 1015.12 1015.91 1016.60 1017.57 1018.22 1018.69 1019.22 1019.40 1019.55 1019.76 1019.92 1020.31 1020.68 1021.04 1021.49 1021.96 1022.44 1022.88 1023.47 1023.90 1024.36 1024.68 1024.95 1025.12
1016.79 1016.71 1017.23 1017.43 1017.32 1017.35 1016.89 1013.09 1012.00 1011.33 1010.70 1010.73 1009.99 1009.91 1009.69 1009.83 1010.20 1010.46 1010.74 1011.13 1011.36 1011.41 1012.36 1012.84 1013.39 1014.10 1014.76 1015.59 1016.34 1016.75 1017.12 1017.55 1017.76 1018.30 1018.84 1019.22 1019.64 1019.90 1020.34 1020.68 1021.21 1021.67 1022.12 1022.63 1023.06 1023.39 1023.81 1024.30 1024.71
1016.20 1016.73 1016.76 1017.29 1017.38 1017.56 1017.00 1015.95 1010.79 1010.65 1009.98 1009.72 1008.51 1007.86 1008.00 1008.02 1008.76 1009.13 1009.32 1009.42 1009.64 1010.44 1011.00 1011.48 1012.32 1013.09 1013.70 1014.45 1014.83 1015.57 1016.19 1016.35 1016.88 1017.54 1018.00 1018.47 1018.83 1019.12 1019.51 1019.86 1020.40 1020.91 1021.38 1021.61 1022.02 1022.65 1023.14 1023.51 1023.88
1016.65 1017.16 1016.89 1017.19 1017.13 1016.92 1015.90 1015.72 1009.55 1009.76 1008.97 1008.43 1007.46 1006.99 1006.93 1007.11 1007.25 1007.65 1007.80 1008.42 1008.86 1009.18 1010.04 1010.71 1011.35 1011.83 1012.52 1013.17 1013.74 1014.27 1014.74 1015.41 1016.13 1016.71 1017.17 1017.62 1018.06 1018.39 1018.56 1019.03 1019.42 1019.92 1020.35 1020.80 1021.16 1021.56 1022.09 1022.45 1022.79
1016.67 1016.80 1016.81 1016.87 1016.94 1015.94 1014.87 1015.13 1009.16 1008.71 1008.29 1007.74 1007.10 1006.54 1006.26 1006.83 1007.14 1007.24 1007.53 1007.90 1008.00 1008.37 1008.81 1009.50 1010.05 1010.62 1011.31 1012.11 1012.63 1013.00 1013.48 1014.24 1014.77 1015.31 1015.91 1016.59 1016.93 1017.14 1017.35 1017.81 1018.40 1018.77 1019.11 1019.60 1020.19 1020.68 1021.06 1021.48 1021.92
1015.65 1016.20 1016.11 1016.49 1016.75 1015.77 1015.22 1012.58 1008.83 1008.00 1007.15 1007.02 1006.61 1006.06 1005.84 1006.16 1006.30 1006.44 1006.62 1006.92 1007.10 1007.29 1007.71 1008.34 1008.81 1009.32 1010.09 1010.74 1011.27 1011.92 1012.52 1013.22 1013.68 1014.26 1014.62 1015.06 1015.49 1015.77 1016.25 1016.63 1017.15 1017.73 1018.21 1018.66 1019.12 1019.72 1020.12 1020.52 1020.93
1015.03 1015.39 1015.58 1016.37 1016.87 1016.36 1014.59 1011.43 1009.01 1007.63 1006.92 1006.65 1005.79 1005.83 1005.55 1005.48 1005.73 1005.76 1005.89 1006.26 1006.44 1006.76 1006.96 1007.24 1007.72 1008.17 1009.04 1009.60 1010.27 1010.95 1011.53 1012.19 1012.59 1012.96 1013.49 1013.90 1014.41 1014.97 1015.46 1015.91 1016.49 1016.88 1017.24 1017.64 1018.16 1018.75 1019.04 1019.55 1019.88
1014.51 1014.63 1015.29 1015.18 1015.75 1015.26 1012.73 1011.03 1008.33 1007.60 1006.79 1005.99 1005.84 1005.80 1005.32 1005.26 1005.23 1005.20 1005.36 1005.62 1005.85 1006.23 1006.37 1006.77 1007.07 1007.32 1007.67 1008.53 1009.21 1009.84 1010.37 1010.97 1011.57 1012.26 1012.61 1013.11 1013.63 1014.16 1014.68 1015.20 1015.65 1016.08 1016.39 1016.79 1017.30 1017.70 1018.15 1018.69 1019.07
1013.95 1014.06 1014.25 1014.69 1014.93 1014.11 1011.97 1009.07 1007.50 1006.89 1005.83 1005.93 1005.74 1005.47 1004.78 1005.01 1004.64 1004.49 1004.83 1004.85 1005.41 1005.92 1006.24 1006.41 1006.71 1007.09 1007.57 1008.01 1008.69 1009.18 1009.69 1010.27 1010.91 1011.33 1011.77 1012.25 1012.86 1013.37 1013.90 1014.30 1014.72 1015.06 1015.37 1015.80 1016.35 1016.83 1017.26 1017.70 1018.09
1013.05 1012.93 1013.66 1013.73 1013.61 1013.34 1012.22 1007.08 1006.57 1006.05 1005.75 1006.06 1005.97 1005.57 1004.86 1005.17 1004.58 1004.35 1004.55 1005.12 1005.30 1005.70 1005.98 1006.24 1006.47 1006.80 1007.03 1007.56 1008.13 1008.46 1008.93 1009.62 1010.22 1010.64 1011.00 1011.48 1011.91 1012.40 1012.90 1013.42 1013.87 1014.23 1014.57 1015.00 1015.37 1015.78 1016.24 1016.55 1016.98
Wind_Speed
7 6 2 5 6 6 2 1 1 3 1 1 3 4 7 3 5 5 3 4 6 7 5 6 7 9 12 13 12 12 11 12 12 14 14 15 14 15 15 14 13 13 14 15 16 17 18 17 17
5 4 5 3 6 4 5 3 4 4 5 6 5 3 1 2 2 4 5 5 7 7 6 5 9 11 12 13 12 12 13 12 12 14 15 13 13 13 14 14 14 13 15 14 15 15 16 16 17
4 4 4 5 4 1 3 3 4 2 6 2 4 2 2 3 2 7 3 8 8 7 6 5 9 12 13 13 13 12 13 11 10 11 16 13 13 13 13 13 13 13 14 15 14 16 15 15 16
5 5 4 4 2 4 3 2 3 6 3 3 4 3 1 3 5 7 10 9 8 6 6 7 8 12 13 13 13 12 13 11 8 15 16 13 13 13 12 12 13 13 13 14 14 14 14 14 14
4 3 4 2 2 3 3 2 5 3 1 2 2 3 2 1 4 10 11 10 11 6 6 6 9 12 13 12 13 12 11 11 10 14 15 13 12 12 11 11 12 12 12 13 13 12 12 12 12
5 3 3 2 4 4 4 4 4 2 2 2 3 5 4 0 7 7 9 9 7 8 6 6 7 9 11 12 10 11 10 11 11 13 13 12 12 11 11 11 10 12 12 12 12 12 11 12 12
6 4 2 1 4 4 2 4 3 4 3 4 6 6 3 3 5 9 8 7 7 7 7 6 5 6 8 10 10 9 10 11 11 10 11 10 10 10 10 9 9 10 10 10 11 11 11 10 11
5 2 4 2 2 5 3 2 2 5 6 2 4 5 5 6 8 6 7 6 6 6 6 6 6 5 5 6 9 9 9 11 11 10 10 9 8 9 9 7 7 9 9 9 9 10 11 10 10
5 4 3 4 0 6 8 6 2 3 4 3 5 3 3 10 10 8 6 8 7 5 6 5 6 5 5 5 5 8 10 10 10 9 9 7 4 5 7 6 6 7 7 8 8 10 10 9 8
7 5 6 2 4 5 8 5 5 2 2 4 2 1 5 11 13 13 12 14 14 15 7 7 6 6 5 4 6 5 5 4 5 5 5 4 4 4 4 5 6 6 6 6 7 7 7 6 3
4 7 10 7 8 2 5 7 6 2 4 9 11 8 9 8 12 12 11 11 15 12 7 8 7 6 6 5 5 2 2 3 3 6 5 4 4 3 2 2 1 2 4 3 4 3 3 4 3
2 4 9 7 7 3 6 6 7 7 12 6 11 8 11 14 15 16 15 13 11 11 10 8 8 7 6 4 6 6 5 3 3 4 5 4 3 3 3 2 2 2 1 2 1 1 1 2 2
1 4 8 10 8 7 3 7 6 10 15 8 4 9 15 15 17 14 11 9 8 11 11 10 9 9 7 7 7 7 7 4 4 4 5 4 4 4 3 3 3 3 3 3 2 1 0 0 0
3 3 6 3 7 7 6 10 4 5 7 7 6 12 13 16 19 11 10 13 13 12 12 10 11 10 8 9 10 8 8 5 4 4 4 5 4 4 4 4 4 3 3 3 2 2 2 2 1
1 4 4 6 3 5 7 11 7 12 5 8 9 9 8 13 9 17 18 16 15 12 12 13 12 11 10 10 8 6 6 5 5 5 6 7 6 5 5 4 4 4 4 3 2 2 1 1 1
1 1 5 5 10 6 8 14 5 6 5 11 10 9 10 11 16 14 13 13 11 11 14 13 12 13 13 11 8 6 6 6 5 5 5 7 7 6 6 5 5 4 4 3 3 2 2 2 2
5 7 6 6 11 4 7 2 7 7 6 12 10 10 11 11 10 13 13 12 13 14 13 14 14 14 14 11 8 8 7 6 6 5 6 8 8 8 7 5 4 5 4 4 3 3 3 3 3
9 6 4 5 4 4 6 9 12 13 10 12 9 8 8 12 19 17 14 13 14 14 13 13 12 14 14 9 7 5 5 6 5 7 8 9 8 9 8 5 5 5 4 4 3 4 3 3 4
12 8 12 3 6 3 11 14 17 14 11 15 13 10 11 13 21 8 12 13 10 10 14 15 16 15 12 10 9 8 10 8 7 8 11 11 9 10 9 6 5 5 6 6 6 4 5 4 3
15 6 7 2 4 5 10 16 16 15 14 16 17 15 12 11 13 13 12 12 15 16 18 17 17 16 15 11 10 8 8 8 9 8 9 11 11 11 10 10 7 7 5 6 6 5 3 3 5
21 20 9 7 1 5 9 21 14 16 19 20 18 17 19 19 17 15 11 16 16 19 20 19 19 18 15 16 9 3 3 1 6 7 8 10 11 11 12 11 9 8 8 7 7 7 7 5 4
20 14 10 9 1 9 3 16 8 7 15 17 21 20 21 20 17 16 13 15 18 21 16 18 18 18 16 17 13 17 13 13 11 10 9 8 11 12 12 11 10 9 8 8 8 8 7 4 6
7 5 12 9 8 1 8 10 4 6 12 13 19 20 21 23 19 19 19 18 18 16 18 18 18 17 17 18 19 14 15 12 9 8 9 11 9 12 12 12 11 10 8 9 10 8 9 7 6
1 1 2 3 4 10 14 9 12 12 14 9 13 15 17 20 20 18 18 15 14 13 15 15 18 19 18 19 21 20 20 15 10 9 9 9 9 9 12 12 11 11 10 11 10 11 11 11 9
15 7 3 3 6 12 9 12 21 15 6 9 11 11 11 10 9 10 11 13 15 15 18 16 18 19 19 20 19 21 20 18 16 15 11 11 10 10 14 14 13 11 12 12 10 11 12 12 10
18 14 4 6 8 4 2 15 8 12 13 17 16 14 8 10 10 11 14 14 15 15 17 18 19 19 19 20 20 18 18 12 13 13 12 11 11 11 12 14 15 14 12 12 11 9 10 11 10
5 14 5 4 2 0 5 11 8 13 11 12 18 9 15 13 9 11 9 10 10 11 16 19 18 18 18 19 17 17 15 16 15 15 13 11 11 8 9 12 15 14 13 13 12 10 12 11 11
7 9 4 3 3 5 8 7 13 12 11 10 16 11 9 11 10 9 9 9 9 10 10 12 16 18 17 18 16 15 17 16 14 11 13 13 10 9 10 12 13 12 13 13 13 11 10 11 9
7 6 5 3 3 4 8 10 8 15 14 9 8 10 8 10 10 8 7 6 6 7 8 8 9 11 11 13 14 14 14 14 13 12 12 12 10 10 12 13 13 13 13 13 12 12 11 13 12
16 14 13 7 10 4 3 23 2 9 7 6 11 12 6 9 9 8 5 5 5 7 7 8 8 10 12 12 13 14 12 12 12 13 12 11 13 11 13 13 13 12 12 13 13 13 11 12 12
Wind_Direction
326 330 5 45 47 63 327 307 112 126 169 262 118 143 177 118 160 206 326 162 139 139 161 145 133 146 132 126 124 120 116 113 117 117 108 105 105 107 105 103 99 102 96 91 87 85 89 87 84
339 341 34 81 74 48 281 266 189 192 139 133 75 34 84 154 111 128 116 184 142 138 141 140 138 135 135 127 131 124 118 120 120 122 111 109 109 104 103 105 104 108 105 93 91 95 93 90 91
26 37 68 86 100 165 247 241 172 96 146 83 102 69 182 189 147 166 166 142 128 131 141 151 144 140 139 137 136 129 120 121 137 134 120 113 108 105 104 101 107 113 105 98 97 101 95 89 92
18 10 39 79 148 251 214 289 160 128 236 163 135 97 295 253 175 182 142 134 128 139 143 155 144 143 142 139 135 130 129 131 109 126 115 114 107 105 104 106 113 114 108 100 98 99 99 95 94
36 55 36 43 253 270 275 170 153 163 146 145 153 210 263 57 106 132 140 140 148 144 149 156 147 155 148 143 138 136 136 141 131 108 109 114 116 114 111 112 118 122 114 112 102 100 101 100 94
33 72 40 303 272 293 301 154 159 215 153 157 95 142 223 15 132 158 144 146 142 150 153 158 160 150 150 146 143 144 145 155 147 121 124 125 124 125 119 120 125 130 127 116 103 97 104 108 100
78 22 231 286 292 334 289 147 201 185 183 242 149 146 258 231 189 155 146 138 145 153 150 155 163 162 149 149 142 138 133 130 141 132 130 127 125 136 121 122 130 127 124 120 113 102 100 113 108
103 63 324 268 291 280 10 276 322 170 222 87 125 209 235 201 152 127 125 138 150 157 162 163 166 168 157 156 150 145 139 131 132 125 121 120 138 145 121 112 122 132 132 126 119 102 93 100 115
112 60 322 303 259 280 9 360 343 314 131 234 190 188 292 128 125 131 134 162 166 179 177 161 163 165 159 155 162 150 147 140 136 133 134 125 123 121 126 138 133 134 127 127 119 104 95 86 96
118 145 206 316 341 320 309 306 305 332 268 269 244 234 107 137 158 169 178 180 191 191 188 169 167 165 158 159 160 154 146 143 142 143 145 133 133 135 137 146 141 135 128 114 107 96 81 79 71
237 173 180 237 258 285 285 313 307 253 251 230 214 180 161 162 176 184 195 193 195 193 186 179 170 164 163 152 171 147 151 147 145 156 154 145 137 135 124 95 82 78 62 47 58 42 45 90 105
229 244 179 187 186 260 280 311 302 212 251 317 252 160 164 178 187 191 197 196 185 188 191 186 170 166 171 144 174 180 180 160 163 173 164 151 144 154 156 166 167 154 143 141 86 44 54 78 85
290 231 221 224 175 224 267 251 239 270 274 278 288 169 180 192 201 204 200 195 180 197 191 191 177 177 178 172 183 188 194 176 174 173 174 157 158 173 165 188 190 189 175 176 180 169 113 352 167
233 258 286 228 204 184 224 259 52 273 338 261 198 210 195 196 201 195 193 198 192 196 195 188 190 182 172 190 191 195 195 178 169 174 177 176 175 172 185 192 208 213 196 190 182 189 212 239 248
6 290 258 232 258 228 179 254 213 247 268 250 240 239 224 214 197 206 205 206 196 197 192 189 190 184 181 189 187 185 190 183 181 183 184 185 185 183 184 191 204 215 196 194 168 191 180 234 277
213 91 247 219 182 237 148 252 257 253 245 258 249 235 235 219 216 214 214 210 199 192 191 189 192 191 190 192 185 188 187 192 192 183 189 195 194 186 188 192 206 197 183 179 190 183 206 241 243
211 234 226 313 194 142 203 232 217 238 245 256 250 237 231 239 230 222 214 201 198 199 190 191 190 191 193 193 188 190 188 190 195 180 189 200 198 190 199 200 204 187 177 190 188 191 176 195 236
204 226 225 227 219 228 244 255 255 252 256 253 255 259 242 239 236 224 216 206 201 197 198 192 190 191 191 188 191 187 187 197 189 200 199 198 199 195 198 198 198 177 172 193 182 192 188 196 217
266 213 231 181 206 174 247 250 257 247 243 251 246 242 242 235 246 223 215 214 200 193 196 195 192 191 182 188 189 198 208 203 205 208 201 200 200 197 198 209 196 178 189 201 191 163 191 226 215
262 248 232 286 184 208 267 262 250 247 245 233 245 244 238 236 244 235 210 204 203 198 202 200 200 194 194 194 199 203 194 213 212 206 205 204 200 194 199 206 200 187 182 192 182 172 188 223 188
234 251 246 249 305 235 290 278 244 250 243 242 244 236 241 235 238 237 212 206 206 209 205 201 201 198 195 196 188 169 142 123 198 207 209 207 202 200 202 204 199 190 190 201 194 188 188 211 212
240 225 250 245 175 271 152 286 250 266 241 222 237 230 231 234 233 231 221 217 209 214 204 206 202 202 199 191 191 200 208 213 216 215 212 210 202 206 205 205 199 197 197 202 196 196 203 177 222
226 191 206 200 200 312 242 275 264 205 256 241 241 234 225 227 223 223 224 220 213 210 203 203 200 199 197 195 200 198 209 216 211 205 206 203 204 210 206 201 197 201 198 208 196 191 202 200 207
168 231 159 193 195 244 238 231 260 234 237 235 242 237 223 227 228 226 228 226 219 204 201 200 197 203 196 196 201 201 208 205 197 194 198 205 209 208 212 203 202 203 204 204 201 204 204 207 210
192 175 229 176 192 238 183 208 247 290 266 233 235 239 227 223 223 219 210 208 210 193 195 195 194 202 198 199 201 205 207 201 201 198 201 198 205 213 218 205 203 205 207 206 202 203 208 207 208
213 213 219 228 203 258 124 235 237 237 269 257 250 252 253 221 212 214 220 217 215 205 197 195 197 201 197 199 203 204 205 204 207 202 201 209 208 210 206 209 217 214 209 207 205 210 213 210 210
160 212 179 141 27 206 232 285 277 252 260 262 261 246 251 251 231 225 217 215 213 206 203 199 198 200 197 201 200 203 200 204 207 207 203 205 209 203 191 195 205 211 211 209 207 214 216 207 207
214 143 167 180 217 248 243 250 245 310 289 246 251 253 259 260 248 224 218 213 215 212 207 202 202 199 195 196 198 200 201 204 208 201 204 208 205 193 181 190 198 206 210 210 206 215 218 210 213
154 197 209 142 199 221 279 263 208 223 256 279 286 267 265 274 269 254 245 216 204 201 196 200 197 194 190 189 195 199 202 203 201 203 205 206 201 188 193 197 201 207 211 208 209 218 217 210 213
218 213 196 216 220 261 286 262 185 231 274 320 293 289 284 269 279 278 273 240 209 205 194 199 193 192 195 190 192 198 195 194 197 207 207 198 202 198 200 200 207 210 211 213 210 213 209 208 208